AC5JC-1 Weather Reports


Display with metric or nautical units.
time (UTC)temp
F
wind
direction
speed
MPH
gust
MPH
rain 1hr
in
rain 24hr
in
rain mn
in
humidity
%
barometer
mb
20260503005534 69 0.0 0.0 0.00 0.00 0.00 59 1019.3
20260503005034 69 0.0 0.0 0.00 0.00 0.00 57 1019.1
20260503004535 70 0.0 0.0 0.00 0.00 0.00 55 1019.1
20260503004034 70 0.0 0.0 0.00 0.00 0.00 55 1019.1
20260503003534 70 0.0 0.0 0.00 0.00 0.00 55 1019.1
20260503003032 71 0.0 0.0 0.00 0.00 0.00 54 1019.2
20260503002615 72 0.0 0.0 0.00 0.00 0.00 53 1019.1
20260503002055 72 0.0 0.0 0.00 0.00 0.00 52 1019.0
20260503001535 73 0.0 0.0 0.00 0.00 0.00 51 1019.0
20260503001035 73 88 0.0 1.0 0.00 0.00 0.00 48 1019.1
20260503000535 74 84 0.0 1.0 0.00 0.00 0.00 47 1019.1
20260503000115 75 0.0 0.0 0.00 0.00 0.00 48 1019.2
20260502235555 76 111 0.0 1.0 0.00 0.00 0.00 44 1019.2
20260502235119 77 0.0 0.0 0.00 0.00 0.00 42 1019.2
20260502234559 78 51 0.0 1.0 0.00 0.00 0.00 41 1019.2
20260502234055 78 89 0.0 1.0 0.00 0.00 0.00 41 1019.2
20260502233615 78 90 0.0 1.0 0.00 0.00 0.00 41 1019.2
20260502233032 78 38 1.0 2.0 0.00 0.00 0.00 39 1019.3
20260502232615 78 131 0.0 1.0 0.00 0.00 0.00 41 1019.3
20260502232055 78 70 1.0 2.0 0.00 0.00 0.00 40 1019.4
20260502231555 78 91 1.0 2.0 0.00 0.00 0.00 40 1019.3
20260502231139 78 99 0.0 1.0 0.00 0.00 0.00 40 1019.4
20260502230544 79 129 1.0 1.0 0.00 0.00 0.00 41 1019.4
20260502230025 79 123 0.0 1.0 0.00 0.00 0.00 40 1019.5
20260502225610 79 78 0.0 1.0 0.00 0.00 0.00 40 1019.4
20260502225034 79 67 1.0 2.0 0.00 0.00 0.00 40 1019.4
20260502224556 79 54 0.0 1.0 0.00 0.00 0.00 41 1019.3
20260502224024 78 117 0.0 1.0 0.00 0.00 0.00 41 1019.3
20260502223607 78 120 0.0 2.0 0.00 0.00 0.00 39 1019.4
20260502223048 78 146 1.0 2.0 0.00 0.00 0.00 41 1019.5
20260502222534 78 175 1.0 2.0 0.00 0.00 0.00 41 1019.6
20260502222034 79 44 1.0 2.0 0.00 0.00 0.00 40 1019.5
20260502221555 79 62 1.0 2.0 0.00 0.00 0.00 41 1019.6
20260502221032 79 76 0.0 1.0 0.00 0.00 0.00 40 1019.7
20260502220635 78 170 1.0 2.0 0.00 0.00 0.00 41 1019.7
20260502220055 78 70 1.0 3.0 0.00 0.00 0.00 42 1019.7
20260502215535 78 79 1.0 2.0 0.00 0.00 0.00 42 1019.7
20260502215034 78 88 1.0 2.0 0.00 0.00 0.00 41 1019.8
20260502214534 78 72 1.0 3.0 0.00 0.00 0.00 42 1019.8
20260502214023 78 333 2.0 3.0 0.00 0.00 0.00 43 1019.8
20260502213607 78 346 1.0 3.0 0.00 0.00 0.00 42 1020.0
20260502213048 78 19 1.0 2.0 0.00 0.00 0.00 43 1020.0
20260502212534 77 72 1.0 1.0 0.00 0.00 0.00 44 1020.1
20260502212035 77 62 2.0 3.0 0.00 0.00 0.00 43 1020.3
20260502211535 77 44 1.0 3.0 0.00 0.00 0.00 43 1020.4
20260502211032 77 123 1.0 2.0 0.00 0.00 0.00 42 1020.4
20260502210615 78 266 1.0 3.0 0.00 0.00 0.00 41 1020.5
20260502210055 77 63 1.0 3.0 0.00 0.00 0.00 43 1020.6
20260502205535 77 143 1.0 2.0 0.00 0.00 0.00 43 1020.6
20260502205034 77 316 2.0 5.0 0.00 0.00 0.00 42 1020.5
20260502204535 77 320 1.0 3.0 0.00 0.00 0.00 43 1020.6
20260502204054 77 97 1.0 1.0 0.00 0.00 0.00 43 1020.7
20260502203534 77 118 1.0 1.0 0.00 0.00 0.00 43 1020.8
20260502203035 77 176 1.0 3.0 0.00 0.00 0.00 44 1020.8
20260502202548 77 85 1.0 1.0 0.00 0.00 0.00 44 1020.8
20260502202131 77 93 1.0 1.0 0.00 0.00 0.00 46 1021.0
20260502201632 76 154 1.0 2.0 0.00 0.00 0.00 46 1021.0
20260502201034 76 351 1.0 2.0 0.00 0.00 0.00 44 1021.1
20260502200528 76 166 2.0 3.0 0.00 0.00 0.00 44 1021.1
20260502200111 76 281 2.0 2.0 0.00 0.00 0.00 44 1021.2
20260502195551 76 19 2.0 5.0 0.00 0.00 0.00 43 1021.2
20260502195034 76 301 1.0 5.0 0.00 0.00 0.00 43 1021.1
20260502194555 76 57 1.0 2.0 0.00 0.00 0.00 46 1021.2
20260502194034 75 288 1.0 3.0 0.00 0.00 0.00 43 1021.3
20260502193534 75 38 2.0 6.0 0.00 0.00 0.00 45 1021.3
20260502193119 75 31 1.0 2.0 0.00 0.00 0.00 45 1021.4
20260502192543 75 335 2.0 5.0 0.00 0.00 0.00 44 1021.3
20260502192034 75 6 1.0 2.0 0.00 0.00 0.00 43 1021.3
20260502191535 75 38 1.0 3.0 0.00 0.00 0.00 45 1021.4
20260502191034 75 16 1.0 2.0 0.00 0.00 0.00 44 1021.5
20260502190534 75 277 0.0 2.0 0.00 0.00 0.00 47 1021.5
20260502190054 74 16 2.0 5.0 0.00 0.00 0.00 46 1021.5
20260502185611 75 41 0.0 2.0 0.00 0.00 0.00 45 1021.5
20260502185034 73 60 0.0 2.0 0.00 0.00 0.00 44 1021.7
20260502184535 74 60 2.0 3.0 0.00 0.00 0.00 43 1021.7
20260502184035 75 43 1.0 5.0 0.00 0.00 0.00 46 1021.9
20260502183535 75 250 2.0 5.0 0.00 0.00 0.00 44 1021.9
20260502182602 74 81 1.0 1.0 0.00 0.00 0.00 44 1022.0
20260502182035 74 17 2.0 3.0 0.00 0.00 0.00 41 1022.0
20260502181535 74 47 1.0 2.0 0.00 0.00 0.00 43 1022.2
20260502181119 74 16 2.0 3.0 0.00 0.00 0.00 44 1022.3
20260502180559 74 35 1.0 5.0 0.00 0.00 0.00 41 1022.3
20260502164114 70 264 2.0 3.0 0.00 0.00 0.00 53 1023.0
20260502163615 70 54 1.0 2.0 0.00 0.01 0.00 50 1023.0
20260502163055 70 37 2.0 3.0 0.00 0.01 0.00 48 1023.1
20260502162534 70 268 1.0 3.0 0.00 0.01 0.00 53 1023.0
20260502162034 70 52 1.0 5.0 0.00 0.01 0.00 56 1022.9
20260502161535 70 351 1.0 2.0 0.00 0.01 0.00 61 1023.0
20260502161034 69 50 1.0 3.0 0.00 0.01 0.00 60 1022.9
20260502160555 69 171 1.0 2.0 0.00 0.01 0.00 64 1022.9
20260502152034 66 3 1.0 5.0 0.00 0.01 0.00 73 1022.8
20260502151535 65 47 1.0 2.0 0.00 0.01 0.00 74 1022.7
20260502151034 65 27 1.0 3.0 0.00 0.01 0.00 76 1022.7
20260502150528 64 43 1.0 2.0 0.00 0.01 0.00 77 1022.7
20260502150111 64 80 1.0 2.0 0.00 0.01 0.00 79 1022.8
20260502130534 52 46 0.0 1.0 0.00 0.01 0.00 99 1022.2
20260502123534 50 0.0 0.0 0.00 0.01 0.00 99 1021.9
20260502123053 50 0.0 0.0 0.00 0.01 0.00 99 1021.7
20260502122716 50 0.0 0.0 0.00 0.01 0.00 99 1021.6
20260502122056 50 0.0 0.0 0.00 0.01 0.00 99 1021.5
20260502121535 50 81 0.0 1.0 0.00 0.01 0.00 99 1021.3
20260502121120 49 0.0 0.0 0.00 0.01 0.00 99 1021.2
20260502120559 49 0.0 0.0 0.00 0.01 0.00 99 1021.1
20260502120121 50 0.0 0.0 0.00 0.01 0.00 99 1021.0
20260502115520 50 0.0 0.0 0.00 0.01 0.00 99 1021.0
20260502115104 50 0.0 0.0 0.00 0.01 0.00 99 1020.9
20260502114544 50 74 0.0 1.0 0.00 0.01 0.00 99 1020.8
20260502114024 50 0.0 0.0 0.00 0.01 0.00 99 1020.8
20260502113607 50 63 0.0 2.0 0.00 0.01 0.00 99 1020.8
20260502113049 50 0.0 0.0 0.00 0.01 0.00 99 1020.6
20260502112528 50 85 0.0 1.0 0.00 0.01 0.00 99 1020.6
20260502112112 50 0.0 0.0 0.00 0.01 0.00 99 1020.6
20260502111552 50 86 0.0 1.0 0.00 0.01 0.00 99 1020.5
20260502111034 50 85 0.0 1.0 0.00 0.01 0.00 99 1020.4
20260502110534 50 76 0.0 1.0 0.00 0.01 0.00 99 1020.5
20260502110035 50 0.0 0.0 0.00 0.01 0.00 99 1020.3
20260502105535 50 0.0 0.0 0.00 0.01 0.00 99 1020.1
20260502105054 50 0.0 0.0 0.00 0.01 0.00 99 1020.1
20260502104534 50 76 0.0 1.0 0.00 0.01 0.00 99 1020.1
20260502104035 50 0.0 0.0 0.00 0.01 0.00 98 1020.1
20260502103534 50 72 0.0 1.0 0.00 0.01 0.00 98 1020.1
20260502103114 50 0.0 0.0 0.00 0.01 0.00 98 1020.1
20260502102534 49 0.0 0.0 0.00 0.01 0.00 98 1020.2
20260502102034 50 0.0 0.0 0.00 0.01 0.00 98 1020.3
20260502101534 50 0.0 0.0 0.00 0.01 0.00 98 1020.2
20260502101034 50 0.0 0.0 0.00 0.01 0.00 97 1020.3
20260502100528 50 0.0 0.0 0.00 0.01 0.00 97 1020.2
20260502100112 51 0.0 0.0 0.00 0.01 0.00 97 1020.3
20260502091034 50 0.0 0.0 0.00 0.01 0.00 97 1019.9
20260502090534 50 0.0 0.0 0.00 0.01 0.00 97 1019.8
20260502071034 51 0.0 0.0 0.00 0.01 0.00 95 1020.1
20260502070534 51 0.0 0.0 0.00 0.01 0.00 95 1020.1
20260502070034 51 0.0 0.0 0.00 0.01 0.00 95 1020.1
20260502065520 52 0.0 0.0 0.00 0.01 0.00 95 1020.1
20260502065104 51 0.0 0.0 0.00 0.01 0.00 95 1020.1
20260502064544 51 0.0 0.0 0.00 0.01 0.00 95 1020.1
20260502064024 52 73 0.0 1.0 0.00 0.01 0.00 95 1020.1
20260502063553 52 0.0 0.0 0.00 0.01 0.00 95 1020.1
20260502063034 52 0.0 0.0 0.00 0.01 0.00 95 1020.2
20260502062534 52 0.0 0.0 0.00 0.01 0.00 95 1020.1
20260502062034 52 0.0 0.0 0.00 0.01 0.00 95 1020.2
20260502061521 52 0.0 0.0 0.00 0.01 0.00 95 1020.1
20260502061104 52 0.0 0.0 0.00 0.01 0.00 95 1020.0
20260502060555 53 0.0 0.0 0.00 0.01 0.00 95 1020.0
20260502060026 53 0.0 0.0 0.00 0.01 0.00 95 1020.0
20260502055608 53 0.0 0.0 0.00 0.01 0.00 94 1019.9
20260502055038 53 0.0 0.0 0.00 0.01 0.00 94 1019.9
20260502054530 53 0.0 0.0 0.00 0.01 0.00 94 1019.9
20260502054112 53 0.0 0.0 0.00 0.01 0.00 94 1019.9
20260502053555 54 0.0 0.0 0.00 0.01 0.00 93 1019.9
20260502053035 54 0.0 0.0 0.00 0.01 0.00 94 1019.9
20260502052616 54 0.0 0.0 0.00 0.01 0.00 94 1019.9
20260502052116 54 0.0 0.0 0.00 0.01 0.00 93 1020.0
20260502051535 54 102 0.0 1.0 0.00 0.01 0.00 93 1019.8
20260502051120 54 99 0.0 1.0 0.00 0.01 0.00 94 1019.9
20260502050600 54 0.0 0.0 0.00 0.01 0.00 95 1020.1
20260502050042 54 0.0 0.0 0.00 0.01 0.00 95 1019.9
20260502045628 54 0.0 0.0 0.00 0.01 0.01 95 1020.0
20260502045048 54 0.0 0.0 0.00 0.01 0.01 95 1019.9
20260502044616 55 0.0 0.0 0.00 0.01 0.01 95 1020.0
20260502044056 55 95 0.0 1.0 0.00 0.01 0.01 95 1020.0
20260502043535 55 0.0 0.0 0.00 0.01 0.01 95 1019.9
20260502043203 55 0.0 0.0 0.00 0.01 0.01 95 1019.8
20260502042600 55 0.0 0.0 0.00 0.01 0.01 95 1019.9
20260502042040 55 0.0 0.0 0.00 0.01 0.01 95 1019.8
20260502041555 55 0.0 0.0 0.00 0.01 0.01 96 1019.8
20260502041141 55 0.0 0.0 0.00 0.01 0.01 95 1019.8
20260502040600 56 0.0 0.0 0.00 0.01 0.01 95 1019.8
20260502040041 56 94 0.0 1.0 0.00 0.01 0.01 95 1019.9
20260502035535 56 0.0 0.0 0.00 0.01 0.01 95 1019.7
20260502035033 56 0.0 0.0 0.00 0.01 0.01 95 1019.7
20260502034616 56 0.0 0.0 0.00 0.01 0.01 94 1019.6
20260502034056 57 0.0 0.0 0.00 0.01 0.01 94 1019.5
20260502033537 57 93 0.0 1.0 0.00 0.01 0.01 94 1019.4
20260502033120 57 0.0 0.0 0.00 0.01 0.01 93 1019.5
20260502032620 57 92 0.0 1.0 0.00 0.01 0.01 93 1019.3
20260502032035 57 0.0 0.0 0.00 0.01 0.01 92 1019.2
20260502031535 57 0.0 0.0 0.00 0.01 0.01 91 1019.2
20260502031032 57 0.0 0.0 0.00 0.01 0.01 92 1019.4
20260502030616 57 0.0 0.0 0.00 0.01 0.01 92 1019.4
20260502030056 57 92 0.0 1.0 0.00 0.01 0.01 92 1019.2
20260502025535 57 0.0 0.0 0.00 0.01 0.01 91 1019.1
20260502025200 58 0.0 0.0 0.00 0.01 0.01 92 1019.2
20260502024600 58 0.0 0.0 0.00 0.01 0.01 91 1019.0
20260502024040 58 0.0 0.0 0.00 0.01 0.01 91 1018.9
20260502023541 59 0.0 0.0 0.00 0.01 0.01 91 1018.9
20260502023104 58 0.0 0.0 0.00 0.01 0.01 90 1019.0
20260502022538 59 0.0 0.0 0.00 0.01 0.01 90 1018.8
20260502022035 59 0.0 0.0 0.00 0.01 0.01 90 1018.7
20260502021522 59 0.0 0.0 0.00 0.01 0.01 90 1018.6
20260502021104 59 0.0 0.0 0.00 0.01 0.01 89 1018.6
20260502020547 59 0.0 0.0 0.00 0.01 0.01 89 1018.5
20260502020035 59 0.0 0.0 0.00 0.01 0.01 87 1018.5
20260502015535 59 0.0 0.0 0.00 0.01 0.01 87 1018.3
20260502015053 59 0.0 0.0 0.00 0.01 0.01 87 1018.2
20260502014636 59 0.0 0.0 0.00 0.01 0.01 87 1018.0
20260502014056 59 0.0 0.0 0.00 0.01 0.01 86 1018.1
20260502013537 60 0.0 0.0 0.00 0.01 0.01 86 1018.0
20260502013035 60 0.0 0.0 0.00 0.01 0.01 85 1018.0
20260502012535 60 0.0 0.0 0.00 0.01 0.01 85 1017.9
20260502012035 60 0.0 0.0 0.00 0.01 0.01 86 1017.8
20260502011521 60 0.0 0.0 0.00 0.01 0.01 85 1017.7
20260502011104 60 0.0 0.0 0.00 0.01 0.01 85 1017.6
20260502010544 61 0.0 0.0 0.00 0.01 0.01 85 1017.4
20260502010034 61 0.0 0.0 0.00 0.01 0.01 86 1017.3